Weather History for K54J - January, 2014

Change the Weather History Date:

Saturday, January 11, 2014

  Actual Average (KCEW) Record (KCEW)
Temperature  
Mean Temperature 60 °F -  
Max Temperature 70 °F 56 °F - (-1)
Min Temperature 49 °F 33 °F - (-1)
Degree Days  
Heating Degree Days 6    
Growing Degree Days 10 (Base 50)    
Moisture  
Dew Point 58 °F    
Average Humidity 83    
Maximum Humidity 100    
Minimum Humidity 43    
Precipitation  
Precipitation 0.67 in - - ()
Sea Level Pressure  
Sea Level Pressure 29.92 in    
Wind  
Wind Speed 10 mph (WSW)    
Max Wind Speed 28 mph    
Max Gust Speed 41 mph    
Visibility 8 miles    
Events Rain    
Averages and records for this station are not official NWS values.
T = Trace of Precipitation, MM = Missing Value Source: NWS Daily Summary

Daily Weather History Graph

Daily Weather History Graph

Search for Another Location

Airport or City:

Trip Planner

Search our weather history database for the weather conditions in past years. The results will help you decide how hot, cold, wet, or windy it might be!

Date:

Astronomy

Jan. 11, 2014 Rise Set
Actual Time 6:43 AM CST 5:02 PM CST
Civil Twilight 6:16 AM CST 5:28 PM CST
Nautical Twilight 5:47 AM CST 5:58 PM CST
Astronomical Twilight 5:18 AM CST 6:27 PM CST
Moon 1:43 PM CST (1/11) 2:50 AM CST (1/11)
Length of Visible Light 11h 11m
Length of Day
10h 19m
Waxing Gibbous, 83% of the Moon is Illuminated
Jan 11
Waxing Gibbous
Jan 15
Full
Jan 23
Last Quarter
Jan 30
New
Feb 6
First Quarter

Hourly Weather History & Observations

Time (CST) Temp. Dew Point Humidity Pressure Visibility Wind Dir Wind Speed Gust Speed Precip Events Conditions
12:15 AM 66.0 °F 66.0 °F 100% 29.98 in 2.0 mi South 11.5 mph 18.4 mph N/A   Overcast
12:35 AM 65.8 °F 65.8 °F 100% 29.98 in 2.5 mi South 10.4 mph - N/A   Overcast
12:55 AM 65.8 °F 65.8 °F 100% 29.96 in 2.0 mi SSE 10.4 mph - N/A   Overcast
1:15 AM 66.2 °F 66.2 °F 100% 29.96 in 1.2 mi South 10.4 mph - N/A   Overcast
1:35 AM 66.4 °F 66.4 °F 100% 29.96 in 1.2 mi South 9.2 mph - 0.01 in Rain Rain
1:55 AM 66.6 °F 66.6 °F 100% 29.96 in 5.0 mi South 13.8 mph 19.6 mph 0.10 in Rain Light Rain
2:15 AM 66.4 °F 66.4 °F 100% 29.95 in 7.0 mi South 12.7 mph 17.3 mph 0.05 in Rain Rain
2:35 AM 66.4 °F 66.4 °F 100% 29.93 in 7.0 mi South 13.8 mph 21.9 mph 0.07 in Rain Light Rain
2:55 AM 66.6 °F 66.6 °F 100% 29.91 in 7.0 mi South 12.7 mph 21.9 mph 0.07 in Rain Light Rain
3:15 AM 66.9 °F 66.9 °F 100% 29.92 in 4.0 mi South 10.4 mph 18.4 mph 0.01 in   Overcast
3:35 AM 67.1 °F 67.1 °F 100% 29.92 in 7.0 mi South 13.8 mph 19.6 mph 0.01 in   Overcast
3:55 AM 66.7 °F 66.7 °F 100% 29.91 in 7.0 mi South 15.0 mph 20.7 mph 0.01 in   Overcast
4:15 AM 67.1 °F 67.1 °F 100% 29.90 in 1.5 mi South 16.1 mph 24.2 mph N/A   Overcast
4:35 AM 67.1 °F 67.1 °F 100% 29.90 in 5.0 mi South 9.2 mph 20.7 mph N/A   Overcast
4:55 AM 67.5 °F 67.5 °F 100% 29.90 in 2.0 mi South 10.4 mph - N/A   Overcast
5:15 AM 67.3 °F 67.3 °F 100% 29.89 in 5.0 mi South 12.7 mph 19.6 mph N/A   Overcast
5:35 AM 67.3 °F 67.3 °F 100% 29.87 in 0.8 mi South 8.1 mph 17.3 mph N/A Rain Light Rain
5:55 AM 67.3 °F 67.3 °F 100% 29.88 in 5.0 mi South 11.5 mph 17.3 mph N/A   Overcast
6:15 AM 67.3 °F 67.3 °F 100% 29.88 in 10.0 mi South 10.4 mph 17.3 mph N/A   Overcast
6:35 AM 66.7 °F 66.7 °F 100% 29.88 in 10.0 mi South 10.4 mph 17.3 mph N/A   Overcast
6:55 AM 66.2 °F 66.2 °F 100% 29.88 in 7.0 mi South 10.4 mph - N/A   Overcast
7:15 AM 66.2 °F 66.2 °F 100% 29.87 in 7.0 mi South 8.1 mph - N/A   Overcast
7:35 AM 66.4 °F 66.4 °F 100% 29.88 in 7.0 mi South 9.2 mph - N/A   Overcast
7:55 AM 66.7 °F 66.7 °F 100% 29.89 in 2.5 mi South 11.5 mph 17.3 mph 0.06 in Rain Heavy Rain
8:15 AM 66.7 °F 66.7 °F 100% 29.88 in 10.0 mi South 12.7 mph 19.6 mph 0.04 in   Overcast
8:35 AM 66.4 °F 66.2 °F 99% 29.89 in 5.0 mi SSW 9.2 mph 17.3 mph 0.05 in Rain Rain
8:55 AM 66.2 °F 66.0 °F 99% 29.90 in 7.0 mi SW 10.4 mph 21.9 mph 0.07 in Rain Light Rain
9:15 AM 66.4 °F 66.2 °F 99% 29.90 in 2.5 mi SSW 13.8 mph 23.0 mph 0.02 in Rain Heavy Rain
9:35 AM 67.8 °F 67.8 °F 100% 29.91 in 7.0 mi SW 15.0 mph 28.8 mph 0.06 in   Overcast
9:55 AM 66.4 °F 65.1 °F 96% 29.94 in 2.5 mi SW 27.6 mph 41.4 mph 0.09 in Rain Heavy Rain
10:15 AM 64.4 °F 63.5 °F 97% 29.92 in 7.0 mi SW 5.8 mph 19.6 mph 0.02 in Rain Light Rain
10:35 AM 64.4 °F 63.9 °F 98% 29.90 in 10.0 mi SW 5.8 mph - 0.04 in Rain Rain
10:55 AM 64.4 °F 63.9 °F 98% 29.90 in 7.0 mi WSW 8.1 mph 17.3 mph 0.06 in Rain Rain
11:15 AM 64.0 °F 63.5 °F 98% 29.88 in 5.0 mi WSW 9.2 mph - 0.01 in Rain Rain
11:35 AM 63.9 °F 63.5 °F 99% 29.89 in 10.0 mi SW 5.8 mph - 0.03 in Rain Rain
11:55 AM 63.9 °F 63.5 °F 99% 29.87 in 7.0 mi WSW 4.6 mph 16.1 mph 0.05 in Rain Rain
12:15 PM 63.7 °F 63.5 °F 99% 29.84 in 10.0 mi WNW 3.5 mph - 0.01 in Rain Light Rain
12:35 PM 64.0 °F 63.5 °F 98% 29.83 in 10.0 mi West 6.9 mph - 0.03 in   Overcast
12:55 PM 65.3 °F 63.5 °F 94% 29.82 in 10.0 mi West 6.9 mph - 0.05 in   Mostly Cloudy
1:15 PM 67.5 °F 63.9 °F 88% 29.83 in 10.0 mi West 8.1 mph - 0.01 in   Scattered Clouds
1:35 PM 68.2 °F 62.6 °F 82% 29.82 in 10.0 mi West 8.1 mph - 0.03 in   Mostly Cloudy
1:55 PM 68.0 °F 62.6 °F 83% 29.83 in 10.0 mi West 6.9 mph - 0.04 in   Mostly Cloudy
2:15 PM 68.0 °F 62.6 °F 83% 29.83 in 10.0 mi West 3.5 mph - N/A   Scattered Clouds
2:35 PM 67.6 °F 61.7 °F 81% 29.83 in 10.0 mi West 3.5 mph - 0.01 in   Clear
2:55 PM 69.8 °F 61.7 °F 75% 29.82 in 10.0 mi West 4.6 mph - 0.02 in   Clear
3:15 PM 70.2 °F 61.2 °F 73% 29.82 in 10.0 mi West 3.5 mph - N/A   Clear
3:35 PM 68.9 °F 61.7 °F 78% 29.83 in 10.0 mi West 3.5 mph - 0.01 in   Scattered Clouds
3:55 PM 70.3 °F 57.2 °F 63% 29.83 in 10.0 mi West 9.2 mph 18.4 mph 0.02 in   Scattered Clouds
4:15 PM 68.5 °F 55.6 °F 63% 29.84 in 10.0 mi SW 6.9 mph 18.4 mph N/A   Clear
4:35 PM 66.2 °F 61.3 °F 84% 29.86 in 10.0 mi WSW 4.6 mph - 0.01 in   Mostly Cloudy
4:55 PM 65.5 °F 60.3 °F 83% 29.87 in 10.0 mi Calm Calm - 0.01 in   Overcast
5:15 PM 64.8 °F 57.9 °F 78% 29.87 in 10.0 mi Calm Calm - N/A   Mostly Cloudy
5:35 PM 63.5 °F 57.0 °F 79% 29.88 in 10.0 mi West 3.5 mph - N/A   Mostly Cloudy
5:55 PM 63.1 °F 53.4 °F 71% 29.89 in 10.0 mi West 5.8 mph - N/A   Scattered Clouds
6:15 PM 62.4 °F 52.0 °F 69% 29.91 in 10.0 mi NW 5.8 mph - N/A   Clear
6:35 PM 60.8 °F 51.8 °F 72% 29.92 in 10.0 mi WNW 3.5 mph - N/A   Clear
6:50 PM 59.9 °F 50.9 °F 72% 29.93 in 10.0 mi WNW 3.5 mph - N/A   Clear
7:15 PM 59.2 °F 47.5 °F 65% 29.95 in 10.0 mi NW 6.9 mph - 0.01 in   Clear
7:35 PM 58.3 °F 44.6 °F 60% 29.96 in 10.0 mi West 4.6 mph - 0.01 in   Clear
7:55 PM 58.1 °F 40.6 °F 52% 29.98 in 10.0 mi WNW 8.1 mph - 0.01 in   Clear
8:15 PM 57.6 °F 36.9 °F 46% 30.00 in 10.0 mi WNW 6.9 mph - N/A   Clear
8:35 PM 56.8 °F 34.5 °F 43% 30.01 in 10.0 mi WNW 6.9 mph - N/A   Clear
8:55 PM 55.8 °F 33.6 °F 43% 30.02 in 10.0 mi WNW 5.8 mph - N/A   Clear
9:15 PM 54.5 °F 33.3 °F 45% 30.03 in 10.0 mi WNW 4.6 mph - N/A   Clear
9:35 PM 53.6 °F 33.1 °F 46% 30.05 in 10.0 mi WNW 9.2 mph - 0.01 in   Clear
9:55 PM 53.4 °F 32.7 °F 45% 30.05 in 10.0 mi NW 9.2 mph - 0.01 in   Clear
10:15 PM 53.2 °F 32.4 °F 45% 30.06 in 10.0 mi WNW 5.8 mph - N/A   Clear
10:35 PM 51.8 °F 32.9 °F 49% 30.07 in 10.0 mi NW 8.1 mph - N/A   Clear
10:55 PM 51.1 °F 33.8 °F 52% 30.07 in 10.0 mi NW 5.8 mph - N/A   Clear
11:15 PM 50.0 °F 33.8 °F 54% 30.08 in 10.0 mi NW 3.5 mph - N/A   Clear
11:35 PM 49.6 °F 33.4 °F 54% 30.08 in 10.0 mi WNW 3.5 mph - N/A   Clear
11:55 PM 49.1 °F 33.3 °F 54% 30.08 in 10.0 mi WNW 4.6 mph - N/A   Clear